QPF
0.07 0.09 0.11 0.08 0.05 0.05 0.06 0.07 0.08 0.09 0.08 0.07 0.08 0.10 0.10 0.12 0.14 0.16 0.14 0.12 0.11 0.11 0.11 0.12 0.10 0.10 0.11 0.11 0.11 0.11 0.10 0.12 0.12 0.10 0.09 0.09 0.09 0.07 0.06 0.05 0.05 0.04 0.03
0.05 0.06 0.07 0.06 0.06 0.07 0.08 0.08 0.08 0.08 0.07 0.08 0.08 0.07 0.07 0.11 0.14 0.14 0.11 0.11 0.10 0.09 0.09 0.09 0.09 0.09 0.11 0.12 0.12 0.12 0.11 0.12 0.12 0.11 0.09 0.08 0.09 0.09 0.07 0.07 0.06 0.06 0.05
0.02 0.03 0.04 0.05 0.05 0.06 0.06 0.06 0.06 0.06 0.07 0.08 0.07 0.06 0.05 0.06 0.10 0.12 0.10 0.11 0.11 0.11 0.12 0.11 0.09 0.09 0.10 0.12 0.11 0.09 0.08 0.08 0.10 0.10 0.10 0.10 0.09 0.08 0.09 0.09 0.09 0.10 0.09
0.01 0.02 0.04 0.04 0.05 0.05 0.04 0.04 0.04 0.05 0.04 0.05 0.05 0.05 0.05 0.05 0.06 0.09 0.10 0.10 0.11 0.12 0.14 0.16 0.15 0.13 0.11 0.10 0.09 0.09 0.10 0.11 0.11 0.11 0.11 0.11 0.10 0.09 0.10 0.10 0.10 0.09 0.08
0.01 0.01 0.03 0.04 0.05 0.06 0.06 0.05 0.04 0.04 0.03 0.04 0.04 0.05 0.06 0.06 0.06 0.08 0.10 0.10 0.12 0.13 0.15 0.16 0.16 0.15 0.13 0.12 0.10 0.12 0.12 0.13 0.13 0.12 0.11 0.11 0.10 0.09 0.09 0.10 0.11 0.11 0.10
0.01 0.01 0.03 0.04 0.04 0.05 0.05 0.04 0.05 0.05 0.05 0.05 0.05 0.05 0.05 0.03 0.05 0.06 0.06 0.07 0.09 0.09 0.09 0.09 0.10 0.09 0.09 0.10 0.09 0.10 0.09 0.11 0.12 0.13 0.13 0.12 0.11 0.11 0.10 0.10 0.10 0.09 0.09
0.02 0.02 0.02 0.03 0.05 0.05 0.04 0.03 0.04 0.03 0.03 0.03 0.04 0.04 0.03 0.04 0.04 0.04 0.05 0.05 0.08 0.09 0.08 0.09 0.08 0.07 0.07 0.07 0.08 0.08 0.07 0.08 0.10 0.11 0.12 0.11 0.10 0.09 0.08 0.07 0.08 0.07 0.06
0.03 0.03 0.02 0.03 0.05 0.06 0.04 0.03 0.03 0.02 0.02 0.02 0.02 0.02 0.03 0.03 0.02 0.02 0.03 0.03 0.05 0.06 0.06 0.07 0.08 0.08 0.08 0.08 0.08 0.09 0.09 0.09 0.09 0.08 0.08 0.07 0.07 0.07 0.07 0.07 0.07 0.06 0.05
0.02 0.02 0.01 0.02 0.03 0.04 0.04 0.03 0.02 0.02 0.02 0.02 0.02 0.01 0.01 0.01 0.01 0.01 0.01 0.01 0.02 0.02 0.03 0.04 0.05 0.06 0.08 0.10 0.11 0.11 0.11 0.10 0.09 0.08 0.07 0.06 0.06 0.05 0.05 0.05 0.06 0.06 0.05
0.01 0.02 0.02 0.01 0.01 0.01 0.01 0.02 0.02 0.02 0.02 0.02 0.01 0.01 0.01 0.01 0.02 0.01 0.01 0.01 0.02 0.02 0.02 0.02 0.03 0.05 0.08 0.09 0.11 0.13 0.13 0.11 0.10 0.09 0.09 0.08 0.07 0.06 0.06 0.06 0.06 0.06 0.06
0.02 0.01 0.01 0.01 0.01 0.01 0.01 0.01 0.01 0.02 0.02 0.01 0.01 0.02 0.02 0.03 0.03 0.02 0.02 0.01 0.02 0.02 0.02 0.01 0.02 0.04 0.05 0.07 0.09 0.11 0.14 0.13 0.12 0.10 0.09 0.08 0.06 0.05 0.04 0.04 0.05 0.05 0.05
0.02 0.01 0.01 0.01 0.01 0.01 0.02 0.02 0.02 0.03 0.03 0.02 0.03 0.03 0.03 0.03 0.02 0.02 0.02 0.02 0.02 0.02 0.03 0.03 0.03 0.03 0.04 0.05 0.05 0.06 0.07 0.06 0.06 0.08 0.09 0.08 0.06 0.04 0.04 0.03 0.04 0.04 0.04
0.01 0.01 0.01 0.01 0.01 0.02 0.02 0.03 0.03 0.03 0.03 0.03 0.03 0.03 0.02 0.02 0.02 0.01 0.01 0.02 0.01 0.01 0.01 0.02 0.03 0.03 0.04 0.04 0.04 0.05 0.04 0.04 0.04 0.04 0.05 0.05 0.05 0.04 0.04 0.04 0.03 0.02 0.02
0.01 0.01 0.01 0.01 0.01 0.01 0.01 0.02 0.02 0.02 0.03 0.02 0.03 0.02 0.02 0.03 0.02 0.02 0.01 0.01 0.01 0.01 0.01 0.02 0.03 0.04 0.04 0.04 0.04 0.04 0.03 0.03 0.04 0.04 0.05 0.05 0.05 0.04 0.03 0.03 0.03 0.03 0.03
0.01 0.01 0.01 0.01 0.01 0.01 0.02 0.02 0.02 0.02 0.02 0.02 0.02 0.02 0.03 0.03 0.04 0.03 0.03 0.02 0.02 0.02 0.02 0.02 0.02 0.03 0.03 0.03 0.04 0.03 0.03 0.03 0.04 0.03 0.04 0.03 0.03 0.03 0.03 0.03 0.03 0.03 0.03
0.02 0.02 0.02 0.02 0.02 0.02 0.03 0.02 0.02 0.02 0.02 0.02 0.02 0.02 0.02 0.03 0.03 0.03 0.03 0.02 0.03 0.02 0.02 0.01 0.01 0.01 0.02 0.02 0.02 0.03 0.02 0.02 0.02 0.02 0.03 0.03 0.03 0.03 0.03 0.03 0.03 0.03 0.03
0.02 0.02 0.02 0.02 0.02 0.02 0.02 0.02 0.02 0.02 0.02 0.02 0.02 0.02 0.02 0.02 0.02 0.02 0.02 0.02 0.02 0.02 0.01 0.01 0.01 0.02 0.02 0.02 0.02 0.02 0.02 0.03 0.03 0.03 0.03 0.03 0.03 0.03 0.03 0.03 0.03 0.03 0.03
0.03 0.03 0.03 0.02 0.02 0.02 0.01 0.01 0.02 0.02 0.02 0.02 0.02 0.02 0.02 0.02 0.02 0.02 0.03 0.03 0.03 0.03 0.03 0.03 0.03 0.03 0.02 0.03 0.03 0.03 0.03 0.04 0.04 0.04 0.04 0.04 0.04 0.03 0.03 0.03 0.03 0.03 0.03
0.02 0.02 0.02 0.02 0.02 0.01 0.01 0.01 0.01 0.01 0.02 0.01 0.01 0.02 0.02 0.02 0.03 0.03 0.03 0.03 0.03 0.04 0.04 0.04 0.05 0.05 0.06 0.06 0.07 0.07 0.06 0.06 0.06 0.06 0.05 0.04 0.03 0.03 0.03 0.02 0.02 0.02 0.01
0.02 0.02 0.02 0.02 0.02 0.01 0.01 0.01 0.01 0.01 0.01 0.01 0.01 0.02 0.02 0.02 0.02 0.02 0.02 0.03 0.04 0.04 0.04 0.05 0.06 0.07 0.08 0.09 0.09 0.10 0.10 0.10 0.09 0.08 0.06 0.04 0.04 0.03 0.03 0.02 0.02 0.01 0.01
0.02 0.03 0.03 0.03 0.04 0.04 0.03 0.03 0.03 0.02 0.02 0.02 0.02 0.02 0.02 0.01 0.02 0.02 0.02 0.02 0.03 0.04 0.05 0.06 0.07 0.08 0.09 0.10 0.11 0.11 0.10 0.10 0.09 0.08 0.06 0.04 0.03 0.02 0.01 0.01 0.01 0.00 0.00
0.02 0.02 0.03 0.04 0.04 0.05 0.05 0.04 0.03 0.03 0.03 0.03 0.03 0.02 0.03 0.02 0.02 0.02 0.03 0.03 0.03 0.04 0.05 0.06 0.07 0.08 0.09 0.10 0.09 0.09 0.08 0.08 0.07 0.05 0.04 0.02 0.01 0.01 0.00 0.00 0.00 0.00 0.00
0.02 0.03 0.03 0.04 0.04 0.05 0.04 0.03 0.03 0.03 0.03 0.03 0.03 0.02 0.02 0.02 0.02 0.02 0.02 0.02 0.03 0.03 0.04 0.04 0.05 0.06 0.07 0.07 0.06 0.06 0.05 0.04 0.03 0.03 0.02 0.01 0.01 0.00 0.00 0.00 0.00 0.00 0.00
0.01 0.01 0.02 0.03 0.03 0.03 0.03 0.03 0.03 0.03 0.03 0.02 0.02 0.01 0.01 0.01 0.01 0.01 0.01 0.01 0.02 0.02 0.02 0.03 0.03 0.04 0.04 0.04 0.03 0.03 0.02 0.02 0.02 0.01 0.01 0.01 0.00 0.00 0.00 0.00 0.00 0.00 0.00
0.00 0.01 0.01 0.02 0.02 0.02 0.02 0.02 0.02 0.02 0.01 0.01 0.01 0.01 0.01 0.01 0.01 0.01 0.01 0.01 0.01 0.02 0.02 0.02 0.02 0.02 0.02 0.02 0.02 0.02 0.02 0.01 0.01 0.01 0.01 0.00 0.00 0.00 0.00 0.00 0.00 0.00 0.00
0.00 0.01 0.01 0.01 0.01 0.01 0.01 0.01 0.01 0.00 0.00 0.00 0.00 0.00 0.00 0.00 0.01 0.01 0.01 0.01 0.01 0.01 0.01 0.02 0.02 0.02 0.02 0.01 0.01 0.01 0.01 0.01 0.01 0.01 0.01 0.01 0.00 0.00 0.00 0.00 0.00 0.00 0.00
MSLP
1013.73 1014.17 1014.55 1014.87 1015.09 1015.20 1015.23 1015.19 1015.11 1015.03 1014.98 1014.95 1014.96 1014.97 1014.97 1014.94 1014.85 1014.70 1014.49 1014.26 1014.01 1013.80 1013.65 1013.58 1013.60 1013.73 1013.94 1014.22 1014.56 1014.92 1015.30 1015.67 1016.04 1016.39 1016.74 1017.08 1017.43 1017.80 1018.19 1018.61 1019.07 1019.56 1020.10
1013.61 1014.02 1014.42 1014.77 1015.05 1015.25 1015.38 1015.43 1015.44 1015.42 1015.40 1015.38 1015.35 1015.32 1015.25 1015.14 1014.96 1014.71 1014.40 1014.03 1013.66 1013.29 1012.99 1012.76 1012.65 1012.66 1012.78 1013.04 1013.39 1013.83 1014.33 1014.86 1015.42 1015.99 1016.56 1017.11 1017.66 1018.20 1018.73 1019.27 1019.82 1020.38 1020.97
1013.55 1013.95 1014.36 1014.75 1015.10 1015.39 1015.61 1015.77 1015.86 1015.91 1015.93 1015.91 1015.87 1015.78 1015.65 1015.46 1015.18 1014.84 1014.41 1013.94 1013.43 1012.93 1012.47 1012.10 1011.84 1011.71 1011.74 1011.93 1012.27 1012.74 1013.34 1014.01 1014.75 1015.52 1016.30 1017.08 1017.83 1018.55 1019.25 1019.92 1020.58 1021.22 1021.86
1013.56 1013.97 1014.39 1014.81 1015.22 1015.59 1015.90 1016.15 1016.33 1016.44 1016.49 1016.48 1016.41 1016.28 1016.09 1015.82 1015.47 1015.04 1014.54 1013.97 1013.37 1012.76 1012.18 1011.68 1011.28 1011.03 1010.95 1011.06 1011.36 1011.84 1012.48 1013.25 1014.12 1015.06 1016.03 1016.99 1017.93 1018.83 1019.68 1020.48 1021.24 1021.97 1022.65
1013.62 1014.04 1014.48 1014.93 1015.38 1015.80 1016.18 1016.50 1016.74 1016.90 1016.97 1016.97 1016.88 1016.72 1016.48 1016.16 1015.77 1015.29 1014.75 1014.14 1013.49 1012.83 1012.18 1011.59 1011.10 1010.74 1010.56 1010.59 1010.82 1011.27 1011.91 1012.72 1013.67 1014.71 1015.80 1016.91 1017.99 1019.03 1020.00 1020.90 1021.74 1022.51 1023.23
1013.69 1014.13 1014.58 1015.04 1015.52 1015.97 1016.39 1016.74 1017.02 1017.21 1017.30 1017.30 1017.21 1017.02 1016.76 1016.43 1016.03 1015.55 1015.02 1014.43 1013.80 1013.14 1012.49 1011.88 1011.34 1010.92 1010.67 1010.61 1010.77 1011.15 1011.75 1012.54 1013.50 1014.58 1015.72 1016.90 1018.05 1019.16 1020.20 1021.16 1022.03 1022.82 1023.53
1013.73 1014.18 1014.64 1015.10 1015.58 1016.03 1016.47 1016.84 1017.14 1017.34 1017.45 1017.45 1017.35 1017.18 1016.92 1016.61 1016.24 1015.82 1015.35 1014.84 1014.28 1013.70 1013.11 1012.54 1012.02 1011.59 1011.29 1011.17 1011.25 1011.55 1012.07 1012.79 1013.69 1014.73 1015.86 1017.02 1018.17 1019.28 1020.32 1021.27 1022.12 1022.89 1023.56
1013.71 1014.17 1014.62 1015.07 1015.53 1015.97 1016.40 1016.77 1017.08 1017.29 1017.41 1017.43 1017.36 1017.21 1016.99 1016.73 1016.43 1016.11 1015.75 1015.36 1014.93 1014.48 1014.01 1013.53 1013.07 1012.67 1012.38 1012.22 1012.24 1012.45 1012.87 1013.48 1014.28 1015.22 1016.25 1017.33 1018.41 1019.45 1020.41 1021.29 1022.08 1022.78 1023.38
1013.62 1014.08 1014.52 1014.96 1015.39 1015.81 1016.22 1016.59 1016.90 1017.13 1017.27 1017.32 1017.29 1017.19 1017.04 1016.85 1016.65 1016.44 1016.22 1015.97 1015.71 1015.41 1015.09 1014.74 1014.39 1014.06 1013.80 1013.63 1013.60 1013.74 1014.05 1014.54 1015.20 1015.99 1016.89 1017.83 1018.77 1019.69 1020.54 1021.31 1021.99 1022.58 1023.09
1013.47 1013.94 1014.37 1014.78 1015.19 1015.60 1016.00 1016.37 1016.69 1016.95 1017.12 1017.22 1017.25 1017.21 1017.14 1017.04 1016.95 1016.85 1016.76 1016.66 1016.55 1016.42 1016.24 1016.04 1015.81 1015.58 1015.37 1015.22 1015.17 1015.24 1015.46 1015.83 1016.34 1016.98 1017.70 1018.48 1019.27 1020.03 1020.73 1021.36 1021.92 1022.39 1022.79
1013.30 1013.77 1014.19 1014.59 1015.00 1015.40 1015.80 1016.18 1016.53 1016.83 1017.06 1017.22 1017.31 1017.35 1017.36 1017.35 1017.34 1017.34 1017.36 1017.39 1017.40 1017.40 1017.36 1017.28 1017.17 1017.03 1016.89 1016.78 1016.73 1016.77 1016.91 1017.17 1017.56 1018.04 1018.61 1019.22 1019.84 1020.44 1021.00 1021.49 1021.92 1022.28 1022.59
1013.15 1013.62 1014.05 1014.45 1014.85 1015.26 1015.67 1016.09 1016.47 1016.83 1017.12 1017.35 1017.52 1017.63 1017.71 1017.77 1017.83 1017.90 1017.99 1018.09 1018.18 1018.26 1018.32 1018.34 1018.32 1018.27 1018.20 1018.13 1018.10 1018.12 1018.22 1018.42 1018.70 1019.06 1019.48 1019.95 1020.42 1020.88 1021.31 1021.68 1022.01 1022.28 1022.52
1013.04 1013.52 1013.95 1014.36 1014.77 1015.19 1015.64 1016.09 1016.52 1016.93 1017.30 1017.60 1017.84 1018.03 1018.17 1018.28 1018.38 1018.47 1018.58 1018.70 1018.82 1018.94 1019.04 1019.11 1019.15 1019.16 1019.16 1019.15 1019.15 1019.18 1019.27 1019.41 1019.62 1019.90 1020.22 1020.57 1020.93 1021.28 1021.60 1021.90 1022.15 1022.37 1022.56
1012.99 1013.47 1013.91 1014.32 1014.74 1015.19 1015.66 1016.15 1016.64 1017.11 1017.54 1017.92 1018.23 1018.47 1018.65 1018.79 1018.90 1018.99 1019.08 1019.16 1019.27 1019.36 1019.46 1019.55 1019.62 1019.67 1019.72 1019.75 1019.79 1019.86 1019.95 1020.09 1020.27 1020.48 1020.73 1021.01 1021.29 1021.57 1021.83 1022.08 1022.29 1022.49 1022.67
1012.97 1013.45 1013.89 1014.30 1014.73 1015.19 1015.68 1016.21 1016.74 1017.27 1017.76 1018.20 1018.57 1018.86 1019.07 1019.22 1019.31 1019.37 1019.41 1019.45 1019.49 1019.53 1019.59 1019.66 1019.73 1019.80 1019.88 1019.96 1020.05 1020.15 1020.28 1020.42 1020.59 1020.79 1021.01 1021.24 1021.48 1021.72 1021.95 1022.17 1022.39 1022.59 1022.79
1012.97 1013.43 1013.86 1014.27 1014.70 1015.16 1015.66 1016.20 1016.77 1017.34 1017.88 1018.37 1018.79 1019.11 1019.35 1019.50 1019.57 1019.59 1019.57 1019.53 1019.50 1019.47 1019.48 1019.51 1019.56 1019.64 1019.74 1019.86 1020.00 1020.15 1020.31 1020.48 1020.66 1020.86 1021.07 1021.28 1021.49 1021.71 1021.94 1022.16 1022.39 1022.61 1022.84
1012.96 1013.40 1013.79 1014.18 1014.59 1015.04 1015.54 1016.09 1016.68 1017.28 1017.86 1018.39 1018.85 1019.21 1019.46 1019.61 1019.66 1019.64 1019.56 1019.46 1019.35 1019.26 1019.21 1019.20 1019.23 1019.31 1019.43 1019.59 1019.77 1019.96 1020.16 1020.37 1020.58 1020.78 1020.98 1021.19 1021.39 1021.61 1021.83 1022.06 1022.30 1022.56 1022.82
1012.93 1013.33 1013.69 1014.05 1014.43 1014.86 1015.35 1015.90 1016.50 1017.11 1017.72 1018.28 1018.77 1019.16 1019.43 1019.58 1019.62 1019.57 1019.45 1019.29 1019.13 1018.99 1018.89 1018.85 1018.87 1018.95 1019.09 1019.28 1019.50 1019.74 1019.98 1020.22 1020.45 1020.66 1020.86 1021.06 1021.26 1021.46 1021.68 1021.92 1022.17 1022.45 1022.73
1012.90 1013.25 1013.58 1013.90 1014.26 1014.67 1015.14 1015.68 1016.28 1016.90 1017.53 1018.11 1018.62 1019.03 1019.31 1019.47 1019.51 1019.45 1019.30 1019.11 1018.92 1018.74 1018.62 1018.56 1018.58 1018.68 1018.84 1019.06 1019.32 1019.59 1019.87 1020.13 1020.37 1020.59 1020.79 1020.98 1021.16 1021.36 1021.57 1021.80 1022.05 1022.33 1022.62
1012.89 1013.20 1013.48 1013.78 1014.12 1014.52 1014.98 1015.52 1016.12 1016.74 1017.37 1017.97 1018.49 1018.91 1019.20 1019.37 1019.41 1019.34 1019.19 1018.99 1018.78 1018.60 1018.47 1018.41 1018.44 1018.55 1018.74 1019.00 1019.29 1019.59 1019.89 1020.17 1020.43 1020.65 1020.84 1021.01 1021.18 1021.35 1021.54 1021.75 1022.00 1022.26 1022.54
1012.93 1013.21 1013.48 1013.77 1014.10 1014.50 1014.97 1015.50 1016.09 1016.72 1017.34 1017.93 1018.45 1018.87 1019.16 1019.33 1019.37 1019.30 1019.15 1018.96 1018.75 1018.57 1018.45 1018.41 1018.46 1018.60 1018.82 1019.10 1019.42 1019.75 1020.07 1020.36 1020.62 1020.84 1021.01 1021.17 1021.31 1021.46 1021.62 1021.81 1022.03 1022.27 1022.53
1013.07 1013.34 1013.61 1013.91 1014.26 1014.66 1015.14 1015.68 1016.27 1016.88 1017.48 1018.05 1018.55 1018.95 1019.23 1019.38 1019.41 1019.34 1019.19 1019.00 1018.80 1018.64 1018.54 1018.53 1018.60 1018.77 1019.02 1019.33 1019.67 1020.02 1020.36 1020.66 1020.91 1021.12 1021.29 1021.42 1021.54 1021.66 1021.79 1021.96 1022.14 1022.36 1022.59
1013.32 1013.60 1013.89 1014.22 1014.59 1015.02 1015.51 1016.04 1016.62 1017.21 1017.78 1018.31 1018.76 1019.12 1019.36 1019.48 1019.49 1019.41 1019.26 1019.07 1018.89 1018.75 1018.68 1018.69 1018.80 1018.99 1019.27 1019.60 1019.97 1020.33 1020.68 1020.98 1021.23 1021.44 1021.59 1021.71 1021.80 1021.90 1022.01 1022.14 1022.29 1022.47 1022.67
1013.68 1013.98 1014.30 1014.67 1015.07 1015.52 1016.01 1016.53 1017.08 1017.62 1018.14 1018.61 1019.00 1019.29 1019.47 1019.55 1019.53 1019.43 1019.27 1019.09 1018.93 1018.81 1018.77 1018.81 1018.95 1019.17 1019.47 1019.83 1020.21 1020.58 1020.93 1021.24 1021.49 1021.69 1021.83 1021.93 1022.01 1022.09 1022.17 1022.28 1022.41 1022.56 1022.73
1014.10 1014.43 1014.79 1015.18 1015.60 1016.05 1016.54 1017.03 1017.53 1018.02 1018.46 1018.85 1019.16 1019.37 1019.49 1019.51 1019.45 1019.32 1019.16 1018.99 1018.84 1018.75 1018.74 1018.81 1018.98 1019.23 1019.55 1019.92 1020.32 1020.70 1021.06 1021.37 1021.62 1021.81 1021.95 1022.04 1022.11 1022.17 1022.23 1022.31 1022.42 1022.55 1022.69
1014.55 1014.89 1015.26 1015.66 1016.08 1016.52 1016.97 1017.42 1017.85 1018.26 1018.61 1018.91 1019.12 1019.26 1019.30 1019.28 1019.18 1019.03 1018.87 1018.71 1018.59 1018.53 1018.55 1018.66 1018.85 1019.13 1019.47 1019.86 1020.27 1020.66 1021.02 1021.33 1021.58 1021.77 1021.91 1021.99 1022.05 1022.10 1022.15 1022.21 1022.30 1022.40 1022.52
Thickness
5772 5769 5766 5764 5762 5760 5757 5756 5755 5753 5752 5750 5749 5747 5746 5744 5743 5740 5739 5738 5735 5734 5733 5731 5729 5728 5726 5725 5724 5722 5720 5716 5707 5705 5704 5702 5700 5696 5692 5689 5686 5682 5679
5772 5769 5766 5763 5761 5759 5756 5755 5753 5751 5750 5748 5747 5745 5743 5742 5740 5738 5736 5735 5732 5730 5728 5727 5725 5724 5721 5720 5718 5716 5714 5712 5706 5698 5696 5694 5691 5689 5685 5682 5679 5675 5671
5773 5768 5764 5761 5759 5756 5754 5753 5750 5748 5747 5746 5744 5741 5740 5739 5737 5736 5734 5731 5729 5727 5725 5722 5721 5719 5716 5714 5713 5711 5709 5707 5703 5696 5690 5687 5684 5681 5677 5674 5671 5667 5663
5772 5767 5762 5759 5756 5754 5752 5750 5747 5745 5743 5741 5739 5737 5736 5734 5733 5731 5730 5727 5724 5722 5720 5718 5716 5714 5711 5709 5707 5705 5702 5699 5696 5691 5685 5681 5677 5673 5670 5666 5661 5658 5654
5769 5764 5760 5757 5755 5752 5749 5746 5744 5742 5740 5737 5735 5732 5730 5729 5727 5726 5724 5722 5719 5716 5714 5712 5710 5709 5706 5704 5701 5699 5696 5692 5688 5683 5678 5673 5669 5666 5663 5661 5655 5650 5644
5766 5761 5758 5755 5751 5748 5745 5742 5739 5737 5734 5732 5729 5727 5725 5723 5721 5720 5718 5716 5713 5710 5708 5706 5704 5702 5699 5697 5695 5692 5690 5686 5681 5677 5672 5667 5663 5660 5657 5654 5649 5643 5636
5762 5758 5754 5751 5747 5744 5741 5738 5734 5731 5729 5726 5724 5722 5719 5716 5715 5713 5711 5709 5706 5703 5701 5699 5697 5695 5692 5690 5687 5685 5682 5680 5677 5673 5667 5662 5658 5655 5651 5646 5641 5635 5628
5758 5754 5751 5747 5743 5740 5736 5733 5729 5726 5723 5720 5718 5716 5713 5710 5708 5706 5704 5702 5699 5696 5694 5692 5689 5687 5685 5682 5680 5676 5672 5669 5668 5665 5662 5657 5653 5649 5645 5640 5634 5626 5620
5753 5750 5747 5743 5739 5735 5731 5727 5724 5721 5717 5715 5712 5710 5707 5703 5701 5700 5697 5695 5692 5689 5686 5684 5682 5679 5677 5675 5673 5668 5663 5659 5656 5655 5652 5648 5645 5641 5637 5631 5625 5618 5610
5749 5746 5743 5739 5735 5731 5726 5723 5719 5716 5713 5710 5707 5704 5701 5698 5695 5693 5691 5690 5686 5682 5679 5676 5673 5671 5669 5667 5665 5661 5656 5651 5648 5645 5641 5638 5634 5631 5627 5623 5618 5611 5604
5745 5741 5737 5733 5730 5726 5722 5718 5715 5712 5708 5704 5701 5698 5695 5692 5688 5686 5684 5683 5680 5676 5672 5668 5664 5661 5660 5658 5655 5652 5647 5644 5640 5636 5631 5627 5623 5619 5615 5611 5607 5602 5596
5740 5735 5731 5727 5724 5721 5716 5712 5710 5706 5702 5699 5695 5692 5689 5685 5681 5678 5676 5674 5671 5668 5664 5659 5655 5652 5650 5648 5645 5642 5638 5634 5631 5626 5621 5616 5612 5607 5602 5598 5594 5589 5585
5731 5727 5723 5720 5717 5713 5709 5706 5703 5700 5697 5694 5690 5686 5682 5678 5674 5670 5667 5664 5662 5659 5654 5650 5646 5643 5640 5638 5635 5632 5629 5625 5621 5616 5610 5605 5601 5596 5591 5586 5581 5577 5573
5722 5718 5715 5711 5708 5705 5702 5699 5695 5692 5690 5687 5684 5680 5676 5672 5667 5663 5659 5654 5652 5649 5645 5640 5637 5633 5631 5627 5624 5621 5618 5615 5611 5606 5601 5596 5591 5585 5580 5576 5572 5567 5561
5714 5710 5707 5703 5699 5694 5689 5685 5683 5678 5676 5675 5674 5671 5667 5662 5657 5654 5652 5649 5646 5641 5636 5632 5629 5625 5622 5618 5614 5611 5608 5604 5600 5595 5591 5585 5580 5575 5570 5566 5562 5558 5552
5705 5702 5699 5695 5690 5686 5680 5673 5668 5666 5664 5662 5661 5659 5655 5651 5647 5645 5643 5640 5636 5632 5629 5625 5621 5618 5614 5609 5605 5601 5597 5593 5589 5585 5580 5575 5570 5565 5560 5556 5552 5547 5541
5697 5694 5691 5687 5682 5678 5673 5668 5661 5655 5651 5650 5648 5646 5644 5640 5638 5635 5633 5630 5626 5623 5620 5618 5613 5609 5604 5600 5596 5591 5586 5582 5578 5574 5569 5565 5560 5555 5550 5545 5541 5536 5531
5687 5685 5682 5678 5674 5670 5666 5661 5657 5652 5647 5640 5636 5633 5631 5629 5626 5624 5621 5619 5616 5613 5610 5608 5603 5599 5595 5590 5585 5580 5576 5571 5567 5563 5558 5554 5550 5545 5540 5536 5531 5526 5522
5677 5675 5672 5669 5665 5661 5657 5653 5649 5645 5639 5633 5627 5622 5619 5616 5614 5612 5610 5609 5607 5605 5601 5597 5593 5588 5583 5578 5574 5569 5565 5561 5556 5552 5547 5543 5539 5535 5530 5527 5522 5517 5515
5667 5663 5661 5659 5656 5651 5648 5643 5639 5635 5630 5624 5619 5615 5610 5607 5605 5602 5599 5598 5597 5595 5591 5587 5582 5577 5572 5568 5563 5559 5555 5550 5546 5542 5537 5533 5529 5525 5522 5518 5515 5511 5508
5656 5652 5648 5647 5644 5640 5636 5633 5629 5625 5620 5615 5610 5604 5600 5599 5596 5594 5591 5588 5586 5584 5581 5577 5572 5567 5563 5558 5554 5550 5546 5542 5538 5534 5529 5525 5521 5517 5514 5511 5508 5505 5502
5646 5642 5639 5636 5632 5628 5625 5621 5617 5614 5610 5605 5599 5594 5590 5589 5588 5586 5582 5579 5576 5573 5570 5566 5563 5559 5554 5550 5546 5542 5538 5535 5530 5526 5521 5517 5513 5510 5507 5505 5501 5498 5495
5635 5631 5627 5624 5620 5615 5613 5611 5607 5603 5599 5594 5590 5585 5582 5580 5578 5576 5573 5570 5566 5563 5560 5557 5554 5550 5545 5541 5538 5534 5530 5526 5522 5518 5514 5510 5507 5504 5501 5498 5495 5492 5489
5624 5622 5617 5614 5610 5606 5603 5600 5597 5593 5590 5586 5582 5578 5575 5572 5569 5567 5564 5561 5558 5555 5552 5549 5545 5542 5538 5534 5530 5526 5522 5518 5513 5509 5506 5502 5500 5497 5494 5491 5488 5486 5483
5614 5611 5607 5604 5601 5597 5594 5591 5588 5585 5581 5578 5575 5572 5568 5565 5562 5559 5556 5553 5550 5547 5544 5540 5537 5534 5530 5526 5521 5517 5513 5509 5505 5501 5498 5495 5492 5490 5487 5484 5481 5479 5477
5604 5601 5598 5595 5592 5589 5586 5583 5580 5577 5574 5571 5568 5565 5561 5558 5555 5552 5549 5546 5543 5540 5536 5533 5529 5526 5522 5518 5513 5509 5505 5501 5497 5493 5490 5487 5485 5483 5480 5478 5476 5474 5472